FENGYUN1
1 25730U 99025A   10287.81118491  .00000828  00000-0  50856-3 0  1596
2 25730 098.7961 249.7056 0021145 290.7455 069.1462 14.08329243588529
OKEAN-0
1 25860U 99039A   10286.56150876  .00000081  00000-0  19799-4 0 01244
2 25860 097.8487 255.3372 0001941 074.4775 285.6657 14.73669969604337
NOAA-16
1 26536U 00055A   10287.43649241 -.00000201  00000-0 -83174-4 0   345
2 26536 099.1660 307.6938 0010569 007.4723 352.6593 14.12579250518660
NOAA-17
1 27453U 02032A   10287.50132799  .00000208  00000-0  10800-3 0   243
2 27453 098.4164 333.0568 0012279 144.7096 215.4899 14.24199446431689
NOAA-18
1 28654U 05018A   10287.54059422  .00000364  00000-0  22540-3 0  5140
2 28654 098.9634 233.5252 0015194 077.4451 282.8398 14.11399099278278
NOAA-19
1 33591U 09005A   10287.48370890 -.00000010  00000-0  18794-4 0  7108
2 33591 098.7994 227.1187 0013598 315.0690 044.9380 14.11091057 86738
HUBBLE
1 20580U 90037B   10286.13501496  .00000638  00000-0  35907-4 0  6598
2 20580 028.4688 189.8229 0003208 020.5896 339.4857 15.01059772922497
ISS
1 25544U 98067A   10287.98463575  .00011801  00000-0  92711-4 0   711
2 25544 051.6475 337.6888 0007989 094.5997 328.8197 15.71998344682318
CO-58
1 28895U 05043F   10287.71680889  .00000162  00000-0  43144-4 0  7042
2 28895 097.9939 168.1150 0016741 270.8452 089.0876 14.59945709264428
FALCON
1 30776U 07006E   10286.79395025  .00000997  00000-0  73969-4 0  9356
2 30776 035.4333 044.1032 0000184 023.5969 336.4755 15.03870214197929
MAST
1 31126U 07012K   10286.54938913  .00000146  00000-0  43541-4 0 09871
2 31126 097.9243 322.3689 0093518 217.7967 141.6664 14.53628644185259
CAPE1
1 31130U 07012P   10286.57729447  .00000211  00000-0  59401-4 0 00066
2 31130 097.9275 319.5774 0101658 226.2967 132.9774 14.52232930184849
COMPASS
1 32787U 08021E   10286.86955922  .00000629  00000-0  85827-4 0  8025
2 32787 097.8832 349.9195 0014572 259.2819 100.6786 14.81996090133070
AAUSAT2
1 32788U 08021F   10286.18579667  .00000258  00000-0  38980-4 0 07923
2 32788 097.8822 349.4011 0013980 264.1349 095.8269 14.82143977132986
DO-64
1 32789U 08021G   10286.65339321  .00000739  00000-0  98909-4 0 08110
2 32789 097.8891 350.4766 0014429 258.6460 101.3151 14.82353885133056
CO-66
1 32791U 08021J   10286.70688673  .00000452  00000-0  63924-4 0  7947
2 32791 097.8828 349.7578 0014946 258.3523 101.5964 14.81761531133001
RS-30
1 32953U 08025A   10287.57538513  .00000010  00000-0  00000 0 0  1309
2 32953 082.5020 315.4484 0018208 198.0788 161.9653 12.43008361108570
TACSAT-3
1 35001U 09028A   10287.89566404  .00008295  00000-0  18686-3 0  4067
2 35001 040.4535 214.4134 0020601 184.7983 175.2631 15.43092027 79127
PHARMSAT
1 35002U 09028B   10286.97231995  .00006891  00000-0  15394-3 0 03815
2 35002 040.4691 217.6172 0023817 181.5895 178.4889 15.43453753079001
HAWKSAT1
1 35003U 09028C   10286.92131691  .00016201  00000-0  30409-3 0 04151
2 35003 040.4564 208.6373 0022066 203.4124 156.5714 15.47926079079103
CP6
1 35004U 09028D   10286.83742501  .00020308  00000-0  36211-3 0 04093
2 35004 040.4578 207.0890 0021305 207.8393 152.1438 15.49297498079100
AEROCUB3
1 35005U 09028E   10287.73913098  .00107674  00000-0  11401-2 0  4821
2 35005 040.4661 190.2329 0024374 241.6618 118.2247 15.62790341 79379
CASTOR
1 35694U 09038F   10230.44082147  .07179566  12689-4  99310-4 0  6559
2 35694 051.5930 222.0149 0004218 308.0851 053.0105 16.48877011 61107
METEOR-M
1 35865U 09049A   10287.69567073  .00000176  00000-0  10000-3 0  7413
2 35865 098.7436 340.5536 0003062 032.6187 327.5158 14.21831861 55703
RS-38
1 35869U 09049E   10287.72444622  .00000177  00000-0  10000-3 0  7540
2 35869 098.7436 340.6222 0005312 027.4668 332.6765 14.21990683 55716
